When you browse on this site, cookies collect data to enhance your experience and personalize the content and advertising you see.
Visit our Privacy Policy to learn more. By continuing to use the site, you agree to this use of cookies and data.
  • In Hungary
  • List of Countries
  • For 7 days
  • Water Temperature
  • Weather Map
  • News
  • Weather Widgets
  • user-avatar
    Login

    Hourly Weather El Quseir

    Today, 31 May, Sunday

    Time Temperature Precipitation Wind Pressure Humidity
    00:00 +24°C° 0 mm 11 mps 757 mmHg 24%
    01:00 +24°C° 0 mm 11 mps 757 mmHg 26%
    02:00 +23°C° 0 mm 12 mps 757 mmHg 27%
    03:00 +22°C° 0 mm 12 mps 757 mmHg 28%
    04:00 +22°C° 0 mm 12 mps 757 mmHg 29%
    05:00 +21°C° 0 mm 12 mps 757 mmHg 29%
    06:00 +24°C° 0 mm 12 mps 757 mmHg 23%
    07:00 +28°C° 0 mm 12 mps 757 mmHg 17%
    08:00 +31°C° 0 mm 12 mps 757 mmHg 11%
    09:00 +33°C° 0 mm 11 mps 757 mmHg 11%
    10:00 +36°C° 0 mm 11 mps 757 mmHg 11%
    11:00 +38°C° 0 mm 11 mps 757 mmHg 11%
    12:00 +38°C° 0 mm 11 mps 756 mmHg 14%
    13:00 +38°C° 0 mm 11 mps 756 mmHg 16%
    14:00 +38°C° 0 mm 11 mps 755 mmHg 18%
    15:00 +37°C° 0 mm 11 mps 755 mmHg 19%
    16:00 +37°C° 0 mm 10 mps 755 mmHg 20%
    17:00 +36°C° 0 mm 10 mps 755 mmHg 21%
    18:00 +34°C° 0 mm 10 mps 755 mmHg 21%
    19:00 +32°C° 0 mm 10 mps 755 mmHg 22%
    20:00 +31°C° 0 mm 10 mps 756 mmHg 22%
    21:00 +29°C° 0 mm 10 mps 756 mmHg 21%
    22:00 +28°C° 0 mm 10 mps 756 mmHg 20%
    23:00 +27°C° 0 mm 11 mps 756 mmHg 20%

    Tomorrow, 1 June, Monday

    Time Temperature Precipitation Wind Pressure Humidity
    00:00 +27°C° 0 mm 10 mps 756 mmHg 19%
    01:00 +27°C° 0 mm 9 mps 756 mmHg 19%
    02:00 +26°C° 0 mm 9 mps 755 mmHg 19%
    03:00 +26°C° 0 mm 9 mps 755 mmHg 21%
    04:00 +24°C° 0 mm 10 mps 756 mmHg 23%
    05:00 +24°C° 0 mm 10 mps 756 mmHg 25%
    06:00 +28°C° 0 mm 10 mps 756 mmHg 23%
    07:00 +32°C° 0 mm 10 mps 756 mmHg 21%
    08:00 +35°C° 0 mm 9 mps 756 mmHg 19%
    09:00 +37°C° 0 mm 9 mps 756 mmHg 18%
    10:00 +39°C° 0 mm 9 mps 756 mmHg 18%
    11:00 +40°C° 0 mm 8 mps 756 mmHg 17%
    12:00 +40°C° 0 mm 8 mps 755 mmHg 18%
    13:00 +40°C° 0 mm 7 mps 755 mmHg 19%
    14:00 +40°C° 0 mm 6 mps 754 mmHg 20%
    15:00 +39°C° 0 mm 6 mps 754 mmHg 21%
    16:00 +37°C° 0 mm 5 mps 754 mmHg 23%
    17:00 +36°C° 0 mm 5 mps 754 mmHg 24%
    18:00 +35°C° 0 mm 5 mps 754 mmHg 26%
    19:00 +33°C° 0 mm 5 mps 754 mmHg 28%
    20:00 +30°C° 0 mm 5 mps 754 mmHg 30%
    21:00 +29°C° 0 mm 4 mps 754 mmHg 31%
    22:00 +29°C° 0 mm 4 mps 755 mmHg 32%
    23:00 +28°C° 0 mm 3 mps 755 mmHg 33%

    Day after tomorrow, 2 June, Tuesday

    Time Temperature Precipitation Wind Pressure Humidity
    00:00 +28°C° 0 mm 3 mps 754 mmHg 31%
    01:00 +28°C° 0 mm 2 mps 754 mmHg 29%
    02:00 +28°C° 0 mm 2 mps 753 mmHg 28%
    03:00 +27°C° 0 mm 1 mps 753 mmHg 28%
    04:00 +27°C° 0 mm 1 mps 753 mmHg 28%
    05:00 +27°C° 0 mm 1 mps 754 mmHg 29%
    06:00 +30°C° 0 mm 1 mps 754 mmHg 24%
    07:00 +34°C° 0 mm 1 mps 754 mmHg 20%
    08:00 +37°C° 0 mm 1 mps 754 mmHg 15%
    09:00 +40°C° 0 mm 2 mps 754 mmHg 14%
    10:00 +43°C° 0 mm 3 mps 754 mmHg 12%
    11:00 +45°C° 0 mm 4 mps 754 mmHg 11%
    12:00 +45°C° 0 mm 4 mps 754 mmHg 11%
    13:00 +47°C° 0 mm 4 mps 753 mmHg 11%
    14:00 +47°C° 0 mm 4 mps 753 mmHg 10%
    15:00 +45°C° 0 mm 4 mps 753 mmHg 11%
    16:00 +44°C° 0 mm 4 mps 752 mmHg 11%
    17:00 +44°C° 0 mm 4 mps 752 mmHg 12%
    18:00 +41°C° 0 mm 4 mps 753 mmHg 13%
    19:00 +38°C° 0 mm 4 mps 753 mmHg 14%
    20:00 +36°C° 0 mm 5 mps 753 mmHg 15%
    21:00 +34°C° 0 mm 6 mps 754 mmHg 17%
    22:00 +33°C° 0 mm 8 mps 754 mmHg 19%
    23:00 +31°C° 0 mm 9 mps 754 mmHg 21%

    3 June, Wednesday

    Time Temperature Precipitation Wind Pressure Humidity
    00:00 +29°C° 0 mm 9 mps 754 mmHg 24%
    01:00 +28°C° 0 mm 10 mps 754 mmHg 26%
    02:00 +27°C° 0 mm 10 mps 754 mmHg 28%
    03:00 +27°C° 0 mm 10 mps 754 mmHg 29%
    04:00 +26°C° 0 mm 10 mps 754 mmHg 30%
    05:00 +26°C° 0 mm 9 mps 755 mmHg 31%
    06:00 +28°C° 0 mm 9 mps 755 mmHg 27%
    07:00 +32°C° 0 mm 9 mps 755 mmHg 24%
    08:00 +34°C° 0 mm 8 mps 756 mmHg 21%
    09:00 +35°C° 0 mm 8 mps 756 mmHg 21%
    10:00 +37°C° 0 mm 8 mps 756 mmHg 22%
    11:00 +38°C° 0 mm 8 mps 756 mmHg 22%
    12:00 +38°C° 0 mm 9 mps 755 mmHg 22%
    13:00 +39°C° 0 mm 9 mps 755 mmHg 22%
    14:00 +39°C° 0 mm 9 mps 754 mmHg 22%
    15:00 +38°C° 0 mm 9 mps 754 mmHg 22%
    16:00 +38°C° 0 mm 9 mps 754 mmHg 23%
    17:00 +37°C° 0 mm 8 mps 754 mmHg 23%
    18:00 +35°C° 0 mm 8 mps 754 mmHg 25%
    19:00 +34°C° 0 mm 9 mps 755 mmHg 26%
    20:00 +32°C° 0 mm 9 mps 755 mmHg 27%
    21:00 +32°C° 0 mm 9 mps 755 mmHg 25%
    22:00 +31°C° 0 mm 8 mps 755 mmHg 24%
    23:00 +31°C° 0 mm 8 mps 756 mmHg 22%

    4 June, Thursday

    Time Temperature Precipitation Wind Pressure Humidity
    00:00 +29°C° 0 mm 8 mps 755 mmHg 23%
    01:00 +28°C° 0 mm 8 mps 755 mmHg 24%
    02:00 +28°C° 0 mm 9 mps 755 mmHg 25%
    03:00 +27°C° 0 mm 8 mps 755 mmHg 29%
    04:00 +26°C° 0 mm 8 mps 755 mmHg 33%
    05:00 +24°C° 0 mm 8 mps 755 mmHg 37%
    06:00 +28°C° 0 mm 8 mps 755 mmHg 32%
    07:00 +31°C° 0 mm 8 mps 756 mmHg 28%
    08:00 +34°C° 0 mm 8 mps 756 mmHg 24%
    09:00 +35°C° 0 mm 8 mps 756 mmHg 24%
    10:00 +37°C° 0 mm 8 mps 756 mmHg 24%
    11:00 +38°C° 0 mm 7 mps 756 mmHg 25%
    12:00 +38°C° 0 mm 7 mps 755 mmHg 24%
    13:00 +38°C° 0 mm 7 mps 755 mmHg 23%
    14:00 +39°C° 0 mm 7 mps 755 mmHg 22%
    15:00 +38°C° 0 mm 7 mps 754 mmHg 22%
    16:00 +38°C° 0 mm 7 mps 754 mmHg 22%
    17:00 +38°C° 0 mm 7 mps 754 mmHg 21%
    18:00 +35°C° 0 mm 8 mps 755 mmHg 22%
    19:00 +34°C° 0 mm 8 mps 755 mmHg 24%
    20:00 +32°C° 0 mm 9 mps 755 mmHg 25%
    21:00 +32°C° 0 mm 9 mps 755 mmHg 23%
    22:00 +32°C° 0 mm 9 mps 756 mmHg 22%
    23:00 +31°C° 0 mm 9 mps 756 mmHg 21%

    5 June, Friday

    Time Temperature Precipitation Wind Pressure Humidity
    00:00 +31°C° 0 mm 9 mps 755 mmHg 22%
    01:00 +29°C° 0 mm 9 mps 755 mmHg 23%
    02:00 +28°C° 0 mm 9 mps 755 mmHg 24%
    03:00 +27°C° 0 mm 9 mps 755 mmHg 27%
    04:00 +27°C° 0 mm 9 mps 755 mmHg 29%
    05:00 +26°C° 0 mm 9 mps 756 mmHg 31%
    06:00 +29°C° 0 mm 9 mps 756 mmHg 28%
    07:00 +32°C° 0 mm 9 mps 756 mmHg 24%
    08:00 +35°C° 0 mm 9 mps 756 mmHg 21%
    09:00 +37°C° 0 mm 9 mps 756 mmHg 21%
    10:00 +38°C° 0 mm 9 mps 756 mmHg 20%
    11:00 +39°C° 0 mm 9 mps 756 mmHg 20%
    12:00 +40°C° 0 mm 9 mps 756 mmHg 19%
    13:00 +40°C° 0 mm 9 mps 755 mmHg 18%
    14:00 +40°C° 0 mm 9 mps 755 mmHg 17%
    15:00 +40°C° 0 mm 8 mps 755 mmHg 18%
    16:00 +39°C° 0 mm 8 mps 755 mmHg 18%
    17:00 +38°C° 0 mm 8 mps 754 mmHg 19%
    18:00 +35°C° 0 mm 8 mps 755 mmHg 21%
    19:00 +33°C° 0 mm 8 mps 755 mmHg 23%
    20:00 +31°C° 0 mm 8 mps 756 mmHg 26%
    21:00 +31°C° 0 mm 9 mps 756 mmHg 25%
    22:00 +29°C° 0 mm 9 mps 756 mmHg 25%
    23:00 +29°C° 0 mm 10 mps 757 mmHg 24%
    Show more